User: anonymous   Login
Location: Young's Pond
(41.2695°N, 72.7766°W)
Time: 18:25:36
(UTC-04:00)
Language:

Spot 4 - Orbit

View from above orbital plane
View from above orbital plane
View from above satellite
View from above satellite

Ground track
Ground track

The orbit data is extracted from the following two-line orbital elements,

1 25260U 98017A   14295.45347567  .00000586  00000-0  15308-3 0  4738
2 25260 098.4471 000.3725 0012973 011.8611 348.2887 14.53056050861135
Epoch (UTC): 22 October 2014 10:53:00
Eccentricity: 0.0012973
inclination: 98.4471°
perigee height: 706 km
apogee height: 725 km
right ascension of ascending node: 0.3725°
argument of perigee: 11.8611°
revolutions per day: 14.53056050
mean anomaly at epoch: 348.2887°
orbit number at epoch: 86113

The dashed part of the orbit path shows where the satellite is in the earth's shadow,  

DLR